Regional Weather Roundup
Issued by NWS

Home | Current Version | Previous Version | Text Only | Print | Product List | Glossary On
Versions: 1 2 3 4 5 6 7 8 9 10 11 12 13 14 15 16 17 18 19 20 21 22 23 24 25 26 27 28 29 30 31 32 33 34 35 36 37 38 39 40 41 42 43 44 45 46 47 48 49 50
000
ASUS46 KSEW 270210
RWRWA

WASHINGTON REGIONAL WEATHER ROUNDUP
NATIONAL WEATHER SERVICE SEATTLE WA
700 PM PDT TUE MAY 26 2015

NOTE:"FAIR" INDICATES FEW OR NO CLOUDS BELOW 12,000 FEET WITH NO
SIGNIFICANT WEATHER AND/OR OBSTRUCTIONS TO VISIBILITY.

WAZ505-507>509-270300-
SEATTLE, TACOMA, EVERETT, AND VICINITY

CITY           SKY/WX    TMP DP  RH WIND       PRES   REMARKS
EVERETT        CLOUDY    64  51  62 CALM      30.02S
BOEING FIELD   CLOUDY    71  49  45 CALM      30.01S
RENTON         CLOUDY    67  52  58 CALM      30.01R
SEATAC AIRPORT PTSUNNY   66  50  56 NW6       30.02S
JBLM-MCCHORD   CLOUDY    66  53  62 W7        30.01F
PUYALLUP       CLOUDY    64  54  68 CALM      30.02S
BREMERTON      CLOUDY    64  54  68 N3        30.03F
JBLM-FT LEWIS  CLOUDY    66  53  62 NW6       30.01F
TACOMA NARROWS CLOUDY    66  51  58 SW3       30.02F
$$

WAZ001-503-506-510-514-515-270300-
NORTH INTERIOR

CITY           SKY/WX    TMP DP  RH WIND       PRES   REMARKS
BELLINGHAM     PTSUNNY   66  55  67 S5        30.00S
FRIDAY HARBOR  MOSUNNY   61  51  70 SW6       30.02S
EASTSOUND      SUNNY     64  52  63 SW6       29.98F
PORT ANGELES   SUNNY     58  50  75 NW8       30.02F
PORT TOWNSEND  FAIR      63  52  67 NW5       30.02R
NAS WHIDBEY    PTSUNNY   58  55  90 W7        30.06S
ARLINGTON        N/A     66  52  59 NW9       30.01R
BURLINGTON     PTSUNNY   64  54  68 W6        30.00S
$$

WAZ020-022-039-040-504-511-512-270300-
SOUTHWEST INTERIOR

CITY           SKY/WX    TMP DP  RH WIND       PRES   REMARKS
SHELTON        CLOUDY    66  52  60 SW7       29.99F
OLYMPIA        CLOUDY    67  51  56 E6        30.01F
CHEHALIS       CLOUDY    68  54  60 CALM      30.01F HAZE
KELSO          CLOUDY    68  48  49 NW7       30.04S
VANCOUVER      CLOUDY    69  48  47 N5        29.99S
SCAPPOOSE, OR  CLOUDY    68  49  50 N7        29.99S
PORTLAND, OR   PTSUNNY   69  50  50 N7        30.00S
$$

WAZ021-516-517-270300-
WASHINGTON COAST

CITY           SKY/WX    TMP DP  RH WIND       PRES   REMARKS
FORKS          MOSUNNY   55  52  89 W8        30.05S
HOQUIAM        SUNNY     58  52  80 SW10      30.04F
ASTORIA, OR    SUNNY     60  50  69 W7        30.04S
$$

WAZ019-023-024-040-518-519-270300-
CASCADE MOUNTAINS AND COLUMBIA GORGE

CITY           SKY/WX    TMP DP  RH WIND       PRES   REMARKS
TROUTDALE, OR  CLOUDY    69  49  48 VRB5      29.98F
THE DALLES, OR MOSUNNY   71  46  40 NW13G24   29.90S
$$

WAZ026-027-041>044-520-521-270300-
EAST SLOPES

CITY           SKY/WX    TMP DP  RH WIND       PRES   REMARKS
OMAK           PTSUNNY   69  48  47 E7        29.94R
WENATCHEE      CLOUDY    69  49  48 E10       29.92R
ELLENSBURG     CLOUDY    64  53  67 NE3       29.95S
YAKIMA         PTSUNNY   73  48  41 N10       29.92R
$$

WAZ028-034-035-270300-
COLUMBIA BASIN

CITY           SKY/WX    TMP DP  RH WIND       PRES   REMARKS
EPHRATA        MOSUNNY   67  50  54 SE7       29.92R
MOSES LAKE     MOSUNNY   67  48  50 CALM      29.93S
PASCO          RAIN      67  58  72 W3        29.91S
HERMISTON, OR  PTSUNNY   70  50  49 NE15G23   29.89R
$$

WAZ036>038-270300-
NORTHEAST WASHINGTON

CITY           SKY/WX    TMP DP  RH WIND       PRES   REMARKS
SPOKANE GEIGER PTSUNNY   61  49  64 NW7       29.95S
SPOKANE FELTS  PTSUNNY   66  49  54 S7        29.94S
FAIRCHILD AFB  PTSUNNY   59  50  71 W5        29.95S
COEURDALENE,ID PTSUNNY   63  48  59 N6        29.94S
DEER PARK      PTSUNNY   66  49  54 NE6       29.95F
$$

WAZ029>033-270300-
SOUTHEAST WASHINGTON

CITY           SKY/WX    TMP DP  RH WIND       PRES   REMARKS
PULLMAN        PTSUNNY   62  48  60 NE6       29.96F
LEWISTON, ID   CLOUDY    63  53  70 SW6       29.92S
WALLA WALLA    PTSUNNY   68  50  52 NE8       29.91S
PENDLETON, OR  MOSUNNY   66  50  56 NE16G23   29.90S
$$


USA.gov is the U.S. government's official web portal to all federal, state and local government web resources and services.